Miscellaneous Local Product
Issued by NWS Hastings, NE

Home | Current Version | Previous Version | Graphics & Text | Print | Product List | Glossary On
Versions: 1 2 3 4 5 6 7 8 9 10 11 12 13 14 15 16 17 18 19 20 21 22 23 24 25 26 27 28 29 30 31 32 33 34 35 36 37 38 39 40 41 42 43 44 45 46 47 48 49 50
000
AXUS43 KGID 151802
MISGRI

GID CWA HOURLY WEATHER ROUNDUP
NATIONAL WEATHER SERVICE HASTINGS NE
100 PM CDT TUE APR 15 2014

NOTE: "FAIR" INDICATES FEW OR NO CLOUDS BELOW 12,000 FEET WITH NO
SIGNIFICANT WEATHER AND/OR OBSTRUCTIONS TO VISIBILITY.

...SOUTH CENTRAL NEBRASKA...

CITY           SKY/WX    TMP DP  RH WIND       PRES   REMARKS
GRAND ISLAND   SUNNY     49  28  44 S23G29    30.01F
HASTINGS       SUNNY     51  22  31 S15G26    30.00F
ORD            SUNNY     47  25  42 S17G26    29.95F
YORK           SUNNY     46  28  49 S17       30.06F
AURORA         SUNNY     48  29  48 S16G24    30.05F
LEXINGTON      SUNNY     53  29  39 S22G29    29.94F
HOLDREGE       SUNNY     51  28  41 S17G25    29.97F
HEBRON         SUNNY     50  21  32 S12G20    30.08F

...NEBRASKA PANHANDLE...

CITY           SKY/WX    TMP DP  RH WIND       PRES   REMARKS
CHADRON        PTSUNNY   58  27  30 W14       29.76F
ALLIANCE       CLOUDY    56  23  27 W18       29.80F
SCOTTSBLUFF    PTSUNNY   58  23  26 W22G29    29.83F
SIDNEY         PTSUNNY   58  22  24 W17G24    29.87F

...WESTERN AND NORTH CENTRAL NEBRASKA...

CITY           SKY/WX    TMP DP  RH WIND       PRES   REMARKS
VALENTINE      MOSUNNY   57  24  28 S15G22    29.78F
AINSWORTH      SUNNY     55  24  30 S21       29.83F
ONEILL         SUNNY     47  18  30 S20G28    29.94F
BROKEN BOW     MOSUNNY   52  26  36 S22G36    29.91F
IMPERIAL       MOSUNNY   59  26  28 SW15G22   29.89F
NORTH PLATTE   SUNNY     56  24  29 S14G24    29.87F
MCCOOK         SUNNY     57  31  37 S15       29.93F

...EASTERN NEBRASKA...

CITY           SKY/WX    TMP DP  RH WIND       PRES   REMARKS
NORFOLK        SUNNY     42  24  49 SE21G28   30.03F
SO SIOUX CITY  SUNNY     40  23  50 S12       30.10F WCI  33
TEKAMAH        SUNNY     43  21  41 S12G17    30.11F
COLUMBUS       SUNNY     45  25  45 S17       30.07F
ALBION         SUNNY     42  24  50 S17G25    30.02F
OMAHA EPPLEY   MOSUNNY   42  17  36 S9        30.13F
OFFUTT AFB     SUNNY     45  20  38 SE6       30.13F
MILLARD        SUNNY     42  15  34 S6        30.14F
LINCOLN        SUNNY     48  21  34 S14G22    30.11F
NEBRASKA CITY  SUNNY     44  17  34 SE6       30.15F
BEATRICE       SUNNY     47  21  35 S10       30.12F
FALLS CITY     SUNNY     47  22  37 SE9       30.16F

...NORTHERN KANSAS...

CITY           SKY/WX    TMP DP  RH WIND       PRES   REMARKS
GOODLAND       MOSUNNY   61  20  20 SW21      29.94F
HILL CITY      SUNNY     60  16  18 SW20G31   30.00F
PHILLIPSBURG   SUNNY     61  14  16 S21G26    30.00F
SMITH CENTER   SUNNY     57  21  24 S14G24    30.02F
BELOIT         SUNNY     55  18  22 S13G21    30.06F
HAYS           SUNNY     59  18  20 SW15G23   30.04F
RUSSELL        SUNNY     59  16  18 SW23      30.04F
CONCORDIA      SUNNY     54  21  27 S14G23    30.08F
SALINA         SUNNY     56  21  25 S10G21    30.11F
TOPEKA         SUNNY     51  24  34 E6        30.18F



USA.gov is the U.S. government's official web portal to all federal, state and local government web resources and services.